Change the Weather History Date:

Saturday, May 3, 2014

  Actual Average Record
Temperature  
Mean Temperature 56 °F -  
Max Temperature 68 °F 68 °F 91 °F (2001)
Min Temperature 44 °F 44 °F 27 °F (1941)
Degree Days  
Heating Degree Days 9    
Growing Degree Days 6 (Base 50)    
Moisture  
Dew Point 44 °F    
Average Humidity 69    
Maximum Humidity 88    
Minimum Humidity 35    
Precipitation  
Precipitation 0.01 in - - ()
Sea Level Pressure  
Sea Level Pressure 29.83 in    
Wind  
Wind Speed 2 mph (WSW)    
Max Wind Speed 15 mph    
Max Gust Speed 23 mph    
Visibility 10 miles    
Events Rain , Thunderstorm    
Averages and records for this station are not official NWS values.
T = Trace of Precipitation, MM = Missing Value Source: NWS Daily Summary

Daily Weather History Graph

Daily Weather History Graph

Search for Another Location

Airport or City:

Trip Planner

Search our weather history database for the weather conditions in past years. The results will help you decide how hot, cold, wet, or windy it might be!

Date:

Astronomy

May. 03, 2014 Rise Set
Actual Time 5:53 AM EDT 7:56 PM EDT
Civil Twilight 5:23 AM EDT 8:26 PM EDT
Nautical Twilight 4:47 AM EDT 9:02 PM EDT
Astronomical Twilight 4:07 AM EDT 9:42 PM EDT
Moon 9:20 AM EDT (5/3) No Moon Set
Length of Visible Light 15h 02m
Length of Day
14h 02m
Waxing Crescent, 19% of the Moon is Illuminated
May 3
Waxing Crescent
May 6
First Quarter
May 14
Full
May 21
Last Quarter
May 28
New

Hourly Weather History & Observations

Time (EDT) Temp. Dew Point Humidity Pressure Visibility Wind Dir Wind Speed Gust Speed Precip Events Conditions
12:15 AM 50.0 °F 42.8 °F 76% 29.86 in 10.0 mi Calm Calm - N/A   Clear
12:35 AM 50.0 °F 44.6 °F 82% 29.86 in 10.0 mi Calm Calm - N/A   Clear
12:55 AM 50.0 °F 42.8 °F 76% 29.87 in 10.0 mi Calm Calm - N/A   Scattered Clouds
1:15 AM 50.0 °F 42.8 °F 76% 29.86 in 10.0 mi Calm Calm - N/A   Mostly Cloudy
1:35 AM 51.8 °F 44.6 °F 76% 29.86 in 10.0 mi Calm Calm - N/A   Mostly Cloudy
1:55 AM 50.0 °F 44.6 °F 82% 29.86 in 10.0 mi Calm Calm - N/A   Scattered Clouds
2:15 AM 50.0 °F 44.6 °F 82% 29.85 in 10.0 mi Calm Calm - N/A   Clear
2:35 AM 50.0 °F 44.6 °F 82% 29.86 in 10.0 mi Calm Calm - N/A   Clear
2:55 AM 48.2 °F 42.8 °F 82% 29.86 in 10.0 mi Calm Calm - N/A   Scattered Clouds
3:15 AM 48.2 °F 44.6 °F 87% 29.87 in 10.0 mi Calm Calm - N/A   Clear
3:35 AM 48.2 °F 44.6 °F 87% 29.86 in 10.0 mi North 3.5 mph - N/A   Clear
3:55 AM 50.0 °F 41.0 °F 71% 29.86 in 10.0 mi Calm Calm - N/A   Clear
4:15 AM 50.0 °F 44.6 °F 82% 29.87 in 10.0 mi Calm Calm - N/A   Clear
4:35 AM 51.8 °F 41.0 °F 67% 29.87 in 10.0 mi Calm Calm - N/A   Clear
4:55 AM 50.0 °F 42.8 °F 76% 29.87 in 10.0 mi Calm Calm - N/A   Clear
5:15 AM 48.2 °F 42.8 °F 82% 29.87 in 10.0 mi Calm Calm - N/A   Clear
5:35 AM 48.2 °F 42.8 °F 82% 29.87 in 10.0 mi Calm Calm - N/A   Clear
5:55 AM 48.2 °F 42.8 °F 82% 29.88 in 10.0 mi Calm Calm - N/A   Clear
6:15 AM 46.4 °F 42.8 °F 87% 29.89 in 10.0 mi Calm Calm - N/A   Clear
6:35 AM 46.4 °F 42.8 °F 87% 29.89 in 10.0 mi Calm Calm - N/A   Clear
6:45 AM 44.6 °F 39.2 °F 81% 29.89 in 10.0 mi Calm Calm - N/A   Scattered Clouds
7:45 AM 51.8 °F 42.8 °F 71% 29.89 in 10.0 mi Calm Calm - N/A   Scattered Clouds
8:45 AM 59.0 °F 39.2 °F 48% 29.88 in 10.0 mi WSW 4.6 mph - N/A   Mostly Cloudy
9:45 AM 60.8 °F 39.2 °F 45% 29.87 in 10.0 mi Calm Calm - N/A   Scattered Clouds
10:45 AM 62.6 °F 39.2 °F 42% 29.85 in 10.0 mi WSW 6.9 mph - N/A   Scattered Clouds
11:45 AM 66.2 °F 42.8 °F 43% 29.83 in 10.0 mi WSW 8.1 mph 19.6 mph N/A   Scattered Clouds
12:45 PM 66.2 °F 39.2 °F 37% 29.81 in 10.0 mi WSW 12.7 mph 18.4 mph N/A   Mostly Cloudy
1:45 PM 68.0 °F 39.2 °F 35% 29.79 in 10.0 mi WSW 11.5 mph 17.3 mph N/A   Mostly Cloudy
2:45 PM 68.0 °F 39.2 °F 35% 29.78 in 10.0 mi West 11.5 mph 20.7 mph N/A   Mostly Cloudy
3:45 PM 68.0 °F 39.2 °F 35% 29.76 in 10.0 mi WSW 12.7 mph 23.0 mph N/A   Scattered Clouds
4:47 PM 66.2 °F 39.2 °F 37% 29.75 in 10.0 mi SW 15.0 mph - N/A   Overcast
5:45 PM 66.2 °F 39.2 °F 37% 29.74 in 10.0 mi SW 12.7 mph 21.9 mph N/A   Overcast
6:45 PM 66.2 °F 39.2 °F 37% 29.75 in 10.0 mi West 9.2 mph - N/A   Overcast
7:45 PM 59.0 °F 46.4 °F 63% 29.77 in 10.0 mi SW 6.9 mph - N/A   Overcast
8:45 PM 53.6 °F 48.2 °F 82% 29.77 in 10.0 mi Calm Calm - N/A   Scattered Clouds
9:45 PM 53.6 °F 50.0 °F 88% 29.78 in 10.0 mi Calm Calm - N/A   Scattered Clouds
10:15 PM 57.2 °F 50.0 °F 77% 29.81 in 10.0 mi SW 6.9 mph - N/A Rain , Thunderstorm Rain
10:35 PM 57.2 °F 50.0 °F 77% 29.78 in 10.0 mi Calm Calm - 0.01 in Rain Light Rain
10:55 PM 55.4 °F 50.0 °F 82% 29.77 in 10.0 mi Calm Calm - N/A   Overcast
11:15 PM 55.4 °F 50.0 °F 82% 29.77 in 10.0 mi Calm Calm - N/A   Overcast
11:35 PM 53.6 °F 50.0 °F 88% 29.78 in 10.0 mi WSW 4.6 mph - N/A   Mostly Cloudy
11:55 PM 55.4 °F 50.0 °F 82% 29.78 in 10.0 mi SSW 3.5 mph - N/A   Mostly Cloudy